CW4498 Weather Reports


time (UTC)temp
C
wind
direction
speed
KPH
gust
KPH
rain 1hr
cm
rain 24hr
cm
rain mn
cm
humidity
%
barometer
mb
20260507190021 16 292 3.2 12.9 0.00 0.15 0.13 29 1029.5
20260507184519 16 338 3.2 8.0 0.00 0.15 0.13 29 1029.6
20260507183018 16 12 0.0 8.0 0.00 0.15 0.13 25 1029.8
20260507181517 16 128 1.6 8.0 0.00 0.15 0.13 27 1030.0
20260507180015 16 94 1.6 8.0 0.00 0.15 0.13 26 1030.4
20260507174512 15 300 6.4 14.5 0.00 0.15 0.13 25 1031.0
20260507173012 14 298 1.6 14.5 0.00 0.15 0.13 28 1031.3
20260507171513 13 286 6.4 17.7 0.00 0.15 0.13 25 1031.9
20260507170004 13 277 6.4 16.1 0.00 0.15 0.13 30 1032.3
20260507164600 12 268 6.4 17.7 0.03 0.15 0.13 32 1032.5
20260507163058 11 324 9.7 22.5 0.03 0.15 0.13 31 1032.6
20260507161557 11 300 6.4 16.1 0.03 0.15 0.13 32 1032.8
20260507160055 11 292 8.0 22.5 0.03 0.15 0.13 32 1033.0
20260507154551 10 265 12.9 27.4 0.00 0.13 0.10 35 1033.2
20260507153058 10 274 12.9 24.1 0.00 0.13 0.10 34 1033.2
20260507151545 10 298 12.9 29.0 0.03 0.13 0.10 34 1033.4
20260507150043 9 313 17.7 32.2 0.08 0.13 0.10 35 1033.5
20260507144541 8 267 16.1 30.6 0.10 0.13 0.10 35 1033.4
20260507143042 8 273 16.1 35.4 0.10 0.13 0.10 34 1033.4
20260507141538 8 245 20.9 37.0 0.08 0.10 0.08 35 1033.6
20260507140041 8 294 19.3 40.2 0.03 0.05 0.03 35 1033.7
20260507134539 8 32 16.1 38.6 0.00 0.03 0.00 35 1033.9
20260507133035 7 283 12.9 30.6 0.00 0.03 0.00 34 1033.6
20260507131545 7 264 9.7 25.7 0.00 0.03 0.00 33 1033.6
20260507130030 7 293 9.7 24.1 0.00 0.03 0.00 34 1033.7
20260507124527 6 263 11.3 25.7 0.00 0.03 0.00 34 1033.7
20260507123026 6 281 12.9 35.4 0.00 0.03 0.00 34 1033.7
20260507121523 6 293 14.5 32.2 0.00 0.03 0.00 37 1033.5
20260507120035 6 285 14.5 30.6 0.00 0.03 0.00 37 1033.3
20260507114524 6 273 14.5 29.0 0.00 0.03 0.00 36 1033.5
20260507113020 5 278 11.3 32.2 0.00 0.03 0.00 37 1033.6
20260507111517 4 293 9.7 27.4 0.00 0.03 0.00 38 1034.0
20260507110017 1 281 0.0 4.8 0.00 0.03 0.00 50 1034.3
20260507104515 1 271 0.0 8.0 0.00 0.03 0.00 49 1034.3
20260507103012 1 131 0.0 4.8 0.00 0.03 0.00 50 1034.3
20260507101511 2 119 0.0 4.8 0.00 0.03 0.00 47 1034.4
20260507100010 2 116 1.6 11.3 0.00 0.03 0.00 49 1034.5
20260507094509 5 109 3.2 14.5 0.00 0.03 0.00 38 1034.5
20260507093007 5 287 9.7 22.5 0.00 0.03 0.00 32 1034.4
20260507091504 5 289 4.8 24.1 0.00 0.03 0.00 34 1034.6
20260507090002 4 295 6.4 17.7 0.00 0.03 0.00 38 1034.8
20260507084558 2 236 11.3 25.7 0.00 0.03 0.00 46 1034.8
20260507083056 -1 153 0.0 4.8 0.00 0.03 0.00 76 1035.2
20260507081555 0 254 0.0 9.7 0.00 0.03 0.00 73 1035.2
20260507080051 0 283 3.2 16.1 0.00 0.03 0.00 77 1035.2
20260507074600 -2 314 1.6 8.0 0.00 0.03 0.00 93 1035.5
20260507073045 -2 276 0.0 4.8 0.00 0.03 0.00 94 1035.8
20260507071543 -2 316 0.0 3.2 0.00 0.03 0.00 94 1035.8
20260507070041 -3 317 0.0 4.8 0.00 0.03 0.00 93 1035.8
20260507064541 -3 316 0.0 1.6 0.00 0.03 0.03 93 1035.9
20260507063040 -2 316 0.0 4.8 0.00 0.03 0.03 93 1035.8
20260507061539 -2 109 0.0 3.2 0.00 0.03 0.03 93 1035.9
20260507060044 -2 109 0.0 3.2 0.00 0.03 0.03 93 1035.8
20260507054549 -2 109 0.0 4.8 0.00 0.03 0.03 93 1035.8
20260507053038 -2 109 0.0 3.2 0.00 0.03 0.03 93 1035.8
20260507051537 -2 109 0.0 0.0 0.00 0.03 0.03 93 1035.7
20260507050037 -2 109 0.0 0.0 0.00 0.03 0.03 93 1035.5
20260507044541 -2 109 0.0 0.0 0.00 0.03 0.03 92 1035.5
20260507043036 -2 109 0.0 0.0 0.00 0.03 0.03 92 1035.6
20260507041537 -2 109 0.0 0.0 0.00 0.03 0.03 92 1035.8
20260507040036 -2 109 0.0 0.0 0.00 0.03 0.03 92 1035.6
20260507034534 -2 109 0.0 0.0 0.00 0.03 0.03 91 1035.6
20260507033034 -2 109 0.0 0.0 0.00 0.03 0.03 91 1035.5
20260507031533 -1 109 0.0 0.0 0.00 0.03 0.03 90 1035.4
20260507030037 -1 109 0.0 1.6 0.00 0.03 0.03 89 1035.2
20260507024533 -1 109 0.0 1.6 0.00 0.03 0.03 88 1035.1
20260507023032 -1 109 0.0 0.0 0.00 0.03 0.03 87 1035.1
20260507021530 0 130 0.0 3.2 0.00 0.03 0.03 86 1035.1
20260507020030 0 117 0.0 3.2 0.00 0.03 0.03 84 1034.9
20260507014543 0 130 1.6 4.8 0.00 0.03 0.03 82 1035.0
20260507013028 0 115 0.0 4.8 0.00 0.03 0.03 82 1035.0
20260507011529 0 178 0.0 6.4 0.03 0.03 0.03 81 1034.9
20260507010032 0 115 3.2 11.3 0.03 0.03 0.03 81 1034.6
20260507004528 0 115 1.6 8.0 0.03 0.03 0.03 79 1034.6
20260507003027 1 128 0.0 8.0 0.03 0.03 0.03 78 1034.5
20260507001528 1 128 1.6 8.0 0.00 0.00 0.00 77 1034.4
20260507000035 1 87 0.0 3.2 0.00 0.00 0.00 77 1034.4
20260506234525 1 295 0.0 1.6 0.00 0.00 0.00 78 1034.4
20260506233025 1 295 0.0 0.0 0.00 0.00 0.00 78 1034.5
20260506231524 1 295 0.0 1.6 0.00 0.00 0.00 77 1034.7
20260506230023 1 295 0.0 6.4 0.00 0.00 0.00 80 1034.6
20260506224523 1 351 0.0 3.2 0.00 0.10 0.00 78 1034.4
20260506223021 1 23 0.0 9.7 0.00 0.10 0.00 80 1034.4
20260506221521 1 327 0.0 3.2 0.00 0.10 0.00 83 1034.6
20260506220023 0 319 0.0 4.8 0.00 0.10 0.00 79 1034.8
20260506214519 0 319 0.0 3.2 0.00 0.18 0.00 83 1034.9
20260506213019 0 317 1.6 8.0 0.00 0.18 0.00 81 1034.9
20260506211518 0 32 0.0 8.0 0.00 0.18 0.00 82 1034.7
20260506210017 0 31 1.6 6.4 0.00 0.18 0.00 81 1034.9
20260506204523 0 43 0.0 8.0 0.00 0.28 0.00 83 1034.6
20260506203019 0 135 0.0 8.0 0.00 0.28 0.00 84 1034.9
20260506201518 0 53 1.6 6.4 0.00 0.28 0.00 84 1034.9
20260506200016 0 55 0.0 8.0 0.00 0.28 0.00 86 1034.8
20260506194517 0 30 3.2 11.3 0.00 0.46 0.00 82 1034.5
20260506193015 0 119 0.0 6.4 0.00 0.46 0.00 84 1034.5
20260506191515 1 130 0.0 8.0 0.00 0.46 0.00 83 1034.4